Showing default

QIANFAN-96, 66038

Orbit data source: Space-Track

QIANFAN-96, 66038 is a Chinese payload satellite in LEO that was launched on Fri, 17 Oct 2025 UTC via a CHANG ZHENG 6A launch vehicle from the Taiyaun Space Center, China (TSC). Payload-class satellites include a variety of spacecraft equipped with specific instruments for various scientific and technological missions. These include communications satellites like Starlink; space stations such as the ISS; scientific satellites like the Hubble; Earth observation satellites from companies like Planet Labs, Umbra, and HawkEye 360; GPS; miniature CubeSats for education and research; and military/defense satellites.

Loading next visibility...
Identifier
66038, 2025-233F
Orbit
LEO
Country
Flag of CNCN / PRC
Related business
Manufacturer
SECM
Mission
Operational Commercial Communications
Bus & Motor
QIANFAN, Unknown motor
Mass
267 kg wet, ~267 kg dry
Launch date (UTC)
2025-10-17 (7 months ago)
Launch vehicle
CHANG ZHENG 6A
Launch site
Taiyaun Space Center, China (TSC)
Object type
Payload
Rocket body
Debris
Shape & HBR
Box + 1 Pan, 14.5 m
Radar Cross Section
13.200 m²

Expand to show TLE details & history
Last TLE update: 7 hours ago

TLE from 7 hours ago
0 QIANFAN-96
1 66038U 25233F   26130.17605089  .00000129  00000-0  18069-3 0  9995
2 66038  89.0022  47.0402 0002377  68.6791 291.4614 13.51016509 28041
Epoch: 2026-05-10T04:13Z
TLE epoch observation values (Epoch: 2026-05-10T04:13:30.796Z)
Latitude
-0.00002°
Longitude
115.67899°
Altitude
1,070.827 km
Speed
7.317 km/s
True Right ascension
03h 08m 09s
True Declination
0° 00' 00"
Sunlit
Object was in daylight at epoch
Visualization orbit readout
Latitude
Unknown
Longitude
Unknown
Altitude
Unknown
Speed
Unknown
Apparent Right ascension
Unknown
Apparent Declination
Unknown
Sunlit
N/A
Visualization observer readout
Local Sidereal Time
19:44:57
Azimuth
Unknown
Elevation
Unknown
Doppler factor
Unknown
Orbital elements
Apogee altitude
1,067.341 km
Perigee altitude
1,063.803 km
Semi-major axis
7,443.709 km
Eccentricity
0.00024
Inclination
89.0022°
RAAN
47.0402°
Arg. of periapsis
68.6791°
True anomaly
291.43605°
Mean anomaly
291.4614°
Eccentric anomaly
291.44872°
Mean motion
3.37955 °/min
Orbital period
106.52 mins
BSTAR
0.00018069
Loading maneuver chart data...
Computing Atmospheric mass density...
Loading historical data...
Loading historical data...
Loading historical data...
Loading historical data...
Loading historical data...
Loading historical data...
Loading historical data...

Documentation

Showing up to 5 results
|